When you browse on this site, cookies collect data to enhance your experience and personalize the content and advertising you see.
Visit our Privacy Policy to learn more. By continuing to use the site, you agree to this use of cookies and data.
EN

Hourly Weather Soledar

Today, 11 July, Saturday

Time Temperature Precipitation Wind Pressure Humidity
00:00 +19°C° 0 mm 2 mps 756 mmHg 66%
01:00 +18°C° 0 mm 2 mps 756 mmHg 68%
02:00 +18°C° 0 mm 2 mps 756 mmHg 70%
03:00 +18°C° 0 mm 1 mps 756 mmHg 72%
04:00 +18°C° 0 mm 1 mps 756 mmHg 72%
05:00 +17°C° 0 mm 2 mps 756 mmHg 73%
06:00 +18°C° 0 mm 2 mps 756 mmHg 74%
07:00 +19°C° 0 mm 2 mps 756 mmHg 67%
08:00 +21°C° 0 mm 2 mps 756 mmHg 61%
09:00 +24°C° 0 mm 3 mps 756 mmHg 55%
10:00 +25°C° 0 mm 3 mps 756 mmHg 50%
11:00 +26°C° 0 mm 3 mps 756 mmHg 45%
12:00 +28°C° 0 mm 3 mps 756 mmHg 41%
13:00 +28°C° 0 mm 4 mps 755 mmHg 39%
14:00 +29°C° 0 mm 4 mps 755 mmHg 38%
15:00 +30°C° 0 mm 4 mps 755 mmHg 36%
16:00 +29°C° 0 mm 4 mps 754 mmHg 39%
17:00 +29°C° 0 mm 4 mps 754 mmHg 41%
18:00 +28°C° 0 mm 4 mps 754 mmHg 43%
19:00 +27°C° 0 mm 4 mps 754 mmHg 49%
20:00 +25°C° 0 mm 3 mps 754 mmHg 55%
21:00 +22°C° 0 mm 3 mps 754 mmHg 62%
22:00 +21°C° 0 mm 3 mps 753 mmHg 65%
23:00 +21°C° 0 mm 3 mps 753 mmHg 68%

Tomorrow, 12 July, Sunday

Time Temperature Precipitation Wind Pressure Humidity
00:00 +20°C° 0 mm 3 mps 753 mmHg 71%
01:00 +19°C° 0 mm 3 mps 753 mmHg 73%
02:00 +19°C° 0 mm 3 mps 753 mmHg 75%
03:00 +18°C° 0 mm 3 mps 752 mmHg 78%
04:00 +18°C° 0 mm 3 mps 752 mmHg 78%
05:00 +19°C° 0 mm 3 mps 752 mmHg 79%
06:00 +19°C° 0 mm 3 mps 751 mmHg 79%
07:00 +21°C° 0 mm 3 mps 751 mmHg 75%
08:00 +23°C° 0 mm 4 mps 751 mmHg 70%
09:00 +26°C° 0 mm 4 mps 751 mmHg 66%
10:00 +28°C° 0 mm 4 mps 751 mmHg 61%
11:00 +30°C° 0 mm 4 mps 750 mmHg 56%
12:00 +32°C° 0 mm 4 mps 750 mmHg 51%
13:00 +33°C° 0 mm 4 mps 750 mmHg 49%
14:00 +33°C° 0 mm 4 mps 749 mmHg 48%
15:00 +33°C° 0 mm 4 mps 749 mmHg 46%
16:00 +33°C° 0 mm 4 mps 748 mmHg 47%
17:00 +33°C° 0 mm 4 mps 748 mmHg 47%
18:00 +33°C° 0 mm 4 mps 747 mmHg 48%
19:00 +30°C° 0.2 mm 3 mps 747 mmHg 54%
20:00 +28°C° 0.2 mm 3 mps 747 mmHg 60%
21:00 +27°C° 0.2 mm 3 mps 747 mmHg 67%
22:00 +25°C° 2.1 mm 2 mps 747 mmHg 74%
23:00 +24°C° 2.1 mm 2 mps 747 mmHg 81%

Day after tomorrow, 13 July, Monday

Time Temperature Precipitation Wind Pressure Humidity
00:00 +23°C° 2.1 mm 1 mps 747 mmHg 89%
01:00 +23°C° 1 mm 2 mps 746 mmHg 88%
02:00 +23°C° 1 mm 2 mps 746 mmHg 87%
03:00 +23°C° 1 mm 2 mps 746 mmHg 86%
04:00 +23°C° 0 mm 2 mps 745 mmHg 87%
05:00 +23°C° 0 mm 2 mps 745 mmHg 87%
06:00 +23°C° 0 mm 2 mps 745 mmHg 88%
07:00 +24°C° 0 mm 1 mps 745 mmHg 83%
08:00 +25°C° 0 mm 1 mps 745 mmHg 78%
09:00 +26°C° 0 mm 1 mps 744 mmHg 74%
10:00 +27°C° 0 mm 1 mps 744 mmHg 68%
11:00 +28°C° 0 mm 1 mps 744 mmHg 63%
12:00 +29°C° 0 mm 1 mps 744 mmHg 58%
13:00 +30°C° 0 mm 1 mps 744 mmHg 54%
14:00 +31°C° 0 mm 2 mps 744 mmHg 51%
15:00 +32°C° 0 mm 2 mps 744 mmHg 48%
16:00 +32°C° 0.3 mm 2 mps 743 mmHg 50%
17:00 +31°C° 0.3 mm 2 mps 743 mmHg 51%
18:00 +31°C° 0.3 mm 2 mps 742 mmHg 53%
19:00 +28°C° 4.1 mm 2 mps 743 mmHg 63%
20:00 +25°C° 4.1 mm 2 mps 743 mmHg 74%
21:00 +21°C° 4.1 mm 2 mps 743 mmHg 84%
22:00 +21°C° 0.5 mm 2 mps 743 mmHg 87%
23:00 +21°C° 0.5 mm 2 mps 743 mmHg 89%

14 July, Tuesday

Time Temperature Precipitation Wind Pressure Humidity
00:00 +22°C° 0.5 mm 1 mps 743 mmHg 91%
01:00 +20°C° 0 mm 2 mps 743 mmHg 93%
02:00 +20°C° 0 mm 2 mps 743 mmHg 94%
03:00 +20°C° 0 mm 2 mps 743 mmHg 96%
04:00 +20°C° 0 mm 3 mps 743 mmHg 95%
05:00 +20°C° 0 mm 3 mps 743 mmHg 95%
06:00 +20°C° 0 mm 3 mps 743 mmHg 94%
07:00 +20°C° 0 mm 4 mps 744 mmHg 92%
08:00 +20°C° 0 mm 4 mps 744 mmHg 90%
09:00 +20°C° 0 mm 4 mps 744 mmHg 88%
10:00 +21°C° 0 mm 4 mps 744 mmHg 86%
11:00 +21°C° 0 mm 5 mps 745 mmHg 84%
12:00 +21°C° 0 mm 5 mps 745 mmHg 82%
13:00 +21°C° 0.1 mm 5 mps 745 mmHg 82%
14:00 +21°C° 0.1 mm 6 mps 745 mmHg 81%
15:00 +21°C° 0.1 mm 6 mps 745 mmHg 80%
16:00 +21°C° 0 mm 6 mps 745 mmHg 79%
17:00 +20°C° 0 mm 6 mps 745 mmHg 79%
18:00 +20°C° 0 mm 6 mps 745 mmHg 79%
19:00 +19°C° 0 mm 6 mps 746 mmHg 80%
20:00 +19°C° 0 mm 6 mps 746 mmHg 82%
21:00 +17°C° 0 mm 6 mps 746 mmHg 84%
22:00 +17°C° 0 mm 6 mps 746 mmHg 85%
23:00 +17°C° 0 mm 5 mps 747 mmHg 86%

15 July, Wednesday

Time Temperature Precipitation Wind Pressure Humidity
00:00 +16°C° 0 mm 5 mps 747 mmHg 87%
01:00 +16°C° 0 mm 6 mps 747 mmHg 87%
02:00 +16°C° 0 mm 6 mps 747 mmHg 87%
03:00 +16°C° 0 mm 6 mps 747 mmHg 87%
04:00 +16°C° 0 mm 6 mps 747 mmHg 87%
05:00 +15°C° 0 mm 5 mps 748 mmHg 86%
06:00 +15°C° 0 mm 5 mps 748 mmHg 86%
07:00 +16°C° 0 mm 5 mps 749 mmHg 82%
08:00 +17°C° 0 mm 5 mps 749 mmHg 78%
09:00 +19°C° 0 mm 5 mps 750 mmHg 74%
10:00 +21°C° 0 mm 5 mps 750 mmHg 67%
11:00 +22°C° 0 mm 5 mps 750 mmHg 60%
12:00 +24°C° 0 mm 6 mps 750 mmHg 53%
13:00 +24°C° 0 mm 6 mps 750 mmHg 50%
14:00 +26°C° 0 mm 6 mps 750 mmHg 48%
15:00 +26°C° 0 mm 6 mps 750 mmHg 45%
16:00 +26°C° 0 mm 5 mps 750 mmHg 46%
17:00 +26°C° 0 mm 5 mps 750 mmHg 47%
18:00 +25°C° 0 mm 5 mps 750 mmHg 48%
19:00 +23°C° 0 mm 4 mps 751 mmHg 53%
20:00 +21°C° 0 mm 3 mps 751 mmHg 59%
21:00 +19°C° 0 mm 2 mps 751 mmHg 64%
22:00 +19°C° 0 mm 1 mps 751 mmHg 65%
23:00 +19°C° 0 mm 1 mps 751 mmHg 66%

16 July, Thursday

Time Temperature Precipitation Wind Pressure Humidity
00:00 +18°C° 0 mm 1 mps 751 mmHg 66%
01:00 +18°C° 0 mm 1 mps 751 mmHg 67%
02:00 +16°C° 0 mm 1 mps 751 mmHg 68%
03:00 +16°C° 0 mm 1 mps 751 mmHg 69%
04:00 +15°C° 0 mm 0 mps 751 mmHg 70%
05:00 +16°C° 0 mm 0 mps 751 mmHg 70%
06:00 +16°C° 0 mm 0 mps 751 mmHg 71%
07:00 +18°C° 0 mm 0 mps 751 mmHg 65%
08:00 +22°C° 0 mm 1 mps 752 mmHg 58%
09:00 +23°C° 0 mm 1 mps 752 mmHg 52%
10:00 +24°C° 0 mm 1 mps 752 mmHg 49%
11:00 +25°C° 0 mm 2 mps 751 mmHg 45%
12:00 +26°C° 0 mm 2 mps 751 mmHg 41%
13:00 +26°C° 0 mm 2 mps 751 mmHg 41%
14:00 +26°C° 0 mm 2 mps 751 mmHg 40%
15:00 +27°C° 0 mm 3 mps 751 mmHg 39%
16:00 +27°C° 0 mm 2 mps 750 mmHg 40%
17:00 +27°C° 0 mm 2 mps 750 mmHg 40%
18:00 +26°C° 0 mm 2 mps 750 mmHg 41%
19:00 +25°C° 0 mm 2 mps 750 mmHg 47%
20:00 +23°C° 0 mm 1 mps 750 mmHg 52%
21:00 +21°C° 0 mm 1 mps 750 mmHg 58%
22:00 +21°C° 0 mm 1 mps 750 mmHg 59%
23:00 +18°C° 0 mm 0 mps 750 mmHg 60%
Show more